Location: Unspecified
(48.2082°N, 0.0000°E)
Time: 14:43:17
(UTC+00:00)

Transit 4A - Pass Details

Date: 17 June 2019
Orbit: 862 x 982 km, 66.8° (Epoch: 20 July)

Event Time Altitude Azimuth Distance (km) Brightness Sun altitude
Rises 18:59:01 0° 319° (NW) 3,692 12.5 8.2°
Reaches altitude 10° 19:01:53 10° 309° (NW) 2,733 12.5 7.8°
Maximum altitude 19:07:20 31° 251° (WSW) 1,639 9.9 7.0°
Drops below altitude 10° 19:12:41 10° 192° (SSW) 2,666 10.2 6.2°
Sets 19:15:27 0° 182° (S) 3,588 10.7 5.8°
